Terminal Aerodrome Forecast
Issued by NWS Kansas City/Pleasant Hill, MO

Home | Current Version | Previous Version | Text Only | Print | Product List | Glossary On
Versions: 1 2 3 4 5 6 7 8 9 10 11 12 13 14 15 16 17 18 19
000
FTUS43 KEAX 240533
TAFMCI
TAF
KMCI 240533Z 2406/2506 31010KT P6SM SCT080
     FM240700 30014G21KT P6SM SKC
     FM241500 32021G32KT P6SM FEW200
     FM250000 31009KT P6SM SKC=

USA.gov is the U.S. government's official web portal to all federal, state and local government web resources and services.